Natchez, MS

3:05 AM CST on November 18, 2019 (GMT -0600)
Hardy-Anders-Adams County

Weather History for KHEZ - September, 2019

Change the Weather History Date:

Monday, September 30, 2019

  Actual Average Record
Temperature  
Mean Temperature 81 °F -  
Max Temperature 91 °F 83 °F 94 °F (1955)
Min Temperature 71 °F 59 °F 41 °F (1963)
Cooling Degree Days 16    
Growing Degree Days 31 (Base 50)    
Moisture  
Dew Point 70 °F    
Average Humidity 73    
Maximum Humidity 97    
Minimum Humidity 45    
Precipitation  
Precipitation 0.00 in - - ()
Sea Level Pressure  
Sea Level Pressure 30.09 in    
Wind  
Wind Speed 5 mph (SSE)    
Max Wind Speed 14 mph    
Max Gust Speed 18 mph    
Visibility 10 miles    
Events      
Averages and records for this station are not official NWS values.
T = Trace of Precipitation, MM = Missing Value Source: NWS Daily Summary

Daily Weather History Graph

Daily Weather History Graph

Search for Another Location

Airport or City:

Astronomy

Sep. 30, 2019 Rise Set
Actual Time 6:58 AM CDT 6:51 PM CDT
Civil Twilight 6:33 AM CDT 7:15 PM CDT
Nautical Twilight 6:05 AM CDT 7:44 PM CDT
Astronomical Twilight 5:37 AM CDT 8:12 PM CDT
Moon 8:57 AM CDT (9/30) 8:35 PM CDT (9/30)
Length of Visible Light 12h 41m
Length of Day
11h 53m
Waxing Crescent, 6% of the Moon is Illuminated
Sep 30
Waxing Crescent
Oct 5
First Quarter
Oct 13
Full
Oct 21
Last Quarter
Oct 27
New

Hourly Weather History & Observations

Time (CDT) Temp. Heat Index Dew Point Humidity Pressure Visibility Wind Dir Wind Speed Gust Speed Precip Events Conditions
12:56 AM 75.9 °F - 72.0 °F 87% 30.11 in 10.0 mi SSE 4.6 mph - N/A   Overcast
1:56 AM 73.9 °F - 71.1 °F 91% 30.10 in 10.0 mi SSE 5.8 mph - N/A   Mostly Cloudy
2:56 AM 73.0 °F - 71.1 °F 93% 30.09 in 10.0 mi SSE 3.5 mph - N/A   Clear
3:56 AM 73.0 °F - 71.1 °F 93% 30.11 in 10.0 mi Calm Calm - N/A   Clear
4:56 AM 72.0 °F - 71.1 °F 97% 30.11 in 10.0 mi Calm Calm - N/A   Clear
5:56 AM 71.1 °F - 70.0 °F 96% 30.11 in 10.0 mi SSE 3.5 mph - N/A   Clear
6:56 AM 71.1 °F - 70.0 °F 96% 30.12 in 8.0 mi Calm Calm - N/A   Clear
7:56 AM 73.9 °F - 72.0 °F 93% 30.12 in 10.0 mi Calm Calm - N/A   Clear
8:56 AM 79.0 °F - 73.9 °F 84% 30.13 in 10.0 mi East 4.6 mph - N/A   Clear
9:56 AM 82.9 °F 88.0 °F 72.0 °F 69% 30.15 in 10.0 mi SSE 9.2 mph - N/A   Clear
10:26 AM 84.2 °F 89.6 °F 71.6 °F 66% 30.15 in 10.0 mi SSE 10.4 mph 18.4 mph N/A   Mostly Cloudy
10:51 AM 84.2 °F 88.4 °F 69.8 °F 62% 30.15 in 10.0 mi SSE 10.4 mph 17.3 mph N/A   Scattered Clouds
10:56 AM 86.0 °F 90.7 °F 70.0 °F 59% 30.14 in 10.0 mi SSE 13.8 mph 17.3 mph N/A   Scattered Clouds
11:56 AM 87.1 °F 92.0 °F 70.0 °F 57% 30.13 in 10.0 mi SSE 12.7 mph 18.4 mph N/A   Mostly Cloudy
12:56 PM 87.1 °F 92.0 °F 70.0 °F 57% 30.12 in 10.0 mi South 6.9 mph - N/A   Scattered Clouds
1:56 PM 89.1 °F 93.7 °F 69.1 °F 52% 30.09 in 10.0 mi SSE 11.5 mph 16.1 mph N/A   Scattered Clouds
2:56 PM 91.9 °F 97.4 °F 70.0 °F 48% 30.06 in 10.0 mi ESE 6.9 mph - N/A   Overcast
3:56 PM 91.9 °F 95.9 °F 68.0 °F 45% 30.04 in 10.0 mi SE 11.5 mph - N/A   Mostly Cloudy
4:56 PM 90.0 °F 92.8 °F 66.9 °F 46% 30.02 in 10.0 mi SE 6.9 mph - N/A   Clear
5:56 PM 91.0 °F 94.3 °F 66.9 °F 45% 30.02 in 10.0 mi South 4.6 mph - N/A   Clear
6:56 PM 84.9 °F 88.8 °F 69.1 °F 59% 30.03 in 10.0 mi Calm Calm - N/A   Clear
7:56 PM 79.0 °F - 70.0 °F 74% 30.04 in 10.0 mi Calm Calm - N/A   Clear
8:56 PM 77.0 °F - 71.1 °F 82% 30.05 in 10.0 mi Calm Calm - N/A   Clear
9:56 PM 75.0 °F - 70.0 °F 84% 30.06 in 10.0 mi SSE 4.6 mph - N/A   Clear
10:56 PM 75.0 °F - 69.1 °F 82% 30.06 in 10.0 mi SSE 3.5 mph - N/A   Clear
11:56 PM 73.9 °F - 68.0 °F 82% 30.05 in 10.0 mi Calm Calm - N/A   Clear